TimeEST,TemperatureF,Dew PointF,Humidity,Sea Level PressureIn,VisibilityMPH,Wind Direction,Wind SpeedMPH,Gust SpeedMPH,PrecipitationIn,Events,Conditions,WindDirDegrees,DateUTC
1:53 AM,61.0,57.9,90,30.07,10.0,Calm,Calm,-,N/A,,Clear,0,2013-01-16 06:53:00
2:34 AM,59.0,57.2,94,30.07,1.8,Calm,Calm,-,N/A,,Clear,0,2013-01-16 07:34:00
2:39 AM,59.0,57.2,94,30.07,1.0,Calm,Calm,-,N/A,,Mist,0,2013-01-16 07:39:00
2:49 AM,59.0,57.2,94,30.06,1.5,Calm,Calm,-,N/A,,Clear,0,2013-01-16 07:49:00
3:02 AM,59.0,57.2,94,30.06,10.0,Calm,Calm,-,N/A,,Clear,0,2013-01-16 08:02:00
3:53 AM,59.0,57.0,93,30.05,9.0,Calm,Calm,-,N/A,,Clear,0,2013-01-16 08:53:00
4:53 AM,57.9,55.9,93,30.05,4.0,Calm,Calm,-,N/A,,Clear,0,2013-01-16 09:53:00
5:18 AM,57.2,55.4,94,30.05,10.0,Calm,Calm,-,N/A,,Partly Cloudy,0,2013-01-16 10:18:00
5:53 AM,60.1,59.0,96,30.05,9.0,Calm,Calm,-,N/A,,Partly Cloudy,0,2013-01-16 10:53:00
6:37 AM,59.0,57.2,94,30.06,1.8,Calm,Calm,-,N/A,,Clear,0,2013-01-16 11:37:00
6:46 AM,59.0,57.2,94,30.07,0.8,Calm,Calm,-,N/A,,Mist,0,2013-01-16 11:46:00
6:53 AM,59.0,57.9,96,30.07,0.5,Calm,Calm,-,N/A,Fog,Fog,0,2013-01-16 11:53:00
7:17 AM,57.2,55.4,94,30.07,0.5,Calm,Calm,-,N/A,Fog,Fog,0,2013-01-16 12:17:00
7:25 AM,57.2,55.4,94,30.07,1.8,Calm,Calm,-,N/A,,Scattered Clouds,0,2013-01-16 12:25:00
7:27 AM,57.2,55.4,94,30.07,3.0,Calm,Calm,-,N/A,,Scattered Clouds,0,2013-01-16 12:27:00
7:33 AM,57.2,55.4,94,30.07,1.5,Calm,Calm,-,N/A,,Scattered Clouds,0,2013-01-16 12:33:00
7:35 AM,55.4,55.4,100,30.07,0.8,Calm,Calm,-,N/A,,Mist,0,2013-01-16 12:35:00
7:46 AM,57.2,55.4,94,30.08,0.2,Calm,Calm,-,N/A,Fog,Fog,0,2013-01-16 12:46:00
7:53 AM,57.9,57.0,97,30.08,0.8,Calm,Calm,-,N/A,,Mist,0,2013-01-16 12:53:00
8:02 AM,59.0,57.2,94,30.09,1.0,Calm,Calm,-,N/A,,Mist,0,2013-01-16 13:02:00
8:09 AM,59.0,57.2,94,30.09,1.5,Calm,Calm,-,N/A,,Clear,0,2013-01-16 13:09:00
8:16 AM,60.8,59.0,94,30.09,3.0,Calm,Calm,-,N/A,,Clear,0,2013-01-16 13:16:00
8:53 AM,61.0,59.0,93,30.10,10.0,Calm,Calm,-,N/A,,Scattered Clouds,0,2013-01-16 13:53:00
9:53 AM,69.1,64.9,87,30.11,10.0,SSW,5.8,-,N/A,,Overcast,210,2013-01-16 14:53:00
10:53 AM,73.0,63.0,71,30.10,10.0,SSW,5.8,-,N/A,,Overcast,200,2013-01-16 15:53:00
11:53 AM,77.0,63.0,62,30.07,10.0,SSW,11.5,18.4,N/A,,Scattered Clouds,200,2013-01-16 16:53:00
12:53 PM,78.1,61.0,56,30.04,10.0,SSW,9.2,-,N/A,,Mostly Cloudy,210,2013-01-16 17:53:00
1:53 PM,80.1,59.0,48,30.02,10.0,SSW,16.1,-,N/A,,Partly Cloudy,200,2013-01-16 18:53:00
2:53 PM,79.0,57.0,47,30.01,10.0,SW,5.8,-,N/A,,Mostly Cloudy,230,2013-01-16 19:53:00
3:53 PM,79.0,55.9,45,30.01,10.0,SSW,8.1,-,N/A,,Scattered Clouds,210,2013-01-16 20:53:00
4:53 PM,78.1,55.9,46,30.01,10.0,SSW,8.1,-,N/A,,Partly Cloudy,200,2013-01-16 21:53:00
5:53 PM,73.0,57.0,57,30.02,10.0,SSW,4.6,-,N/A,,Clear,210,2013-01-16 22:53:00
6:53 PM,64.0,57.0,78,30.03,10.0,West,3.5,-,N/A,,Clear,260,2013-01-16 23:53:00
7:53 PM,62.1,57.0,84,30.04,10.0,ESE,3.5,-,N/A,,Clear,120,2013-01-17 00:53:00
8:53 PM,63.0,57.0,81,30.05,10.0,West,4.6,-,N/A,,Clear,260,2013-01-17 01:53:00
9:53 PM,60.1,55.9,86,30.05,10.0,Calm,Calm,-,N/A,,Clear,0,2013-01-17 02:53:00
10:53 PM,59.0,55.9,90,30.04,10.0,Calm,Calm,-,N/A,,Clear,0,2013-01-17 03:53:00
11:53 PM,57.9,55.9,93,30.03,10.0,Calm,Calm,-,N/A,,Clear,0,2013-01-17 04:53:00